| time (UTC) | temp C | wind direction | speed KPH | gust KPH | rain 1hr cm | rain 24hr cm | rain mn cm | humidity % | barometer mb |
| 20260504081541 | 5 | 0 | 0.0 | 0.0 | 0.00 | 0.00 | 0.00 | 73 | 1014.5 |
| 20260504044546 | 7 | 0 | 0.0 | 1.6 | 0.00 | 0.00 | 0.00 | 59 | 1014.3 |
| 20260504043043 | 7 | 0 | 0.0 | 3.2 | 0.00 | 0.00 | 0.00 | 60 | 1014.2 |
| 20260504041541 | 7 | 0 | 0.0 | 1.6 | 0.00 | 0.00 | 0.00 | 62 | 1014.0 |
| 20260504040045 | 6 | 0 | 0.0 | 0.0 | 0.00 | 0.00 | 0.00 | 62 | 1014.0 |
| 20260504034535 | 7 | 0 | 0.0 | 0.0 | 0.00 | 0.00 | 0.00 | 60 | 1014.0 |
| 20260504033051 | 7 | 0 | 0.0 | 3.2 | 0.00 | 0.00 | 0.00 | 60 | 1013.9 |
| 20260504031543 | 7 | 0 | 0.0 | 1.6 | 0.00 | 0.00 | 0.00 | 60 | 1013.8 |
| 20260504030046 | 7 | 0 | 0.0 | 0.0 | 0.00 | 0.00 | 0.00 | 59 | 1013.7 |
| 20260504024549 | 8 | 0 | 0.0 | 0.0 | 0.00 | 0.00 | 0.00 | 58 | 1013.7 |
| 20260504023037 | 8 | 0 | 0.0 | 1.6 | 0.00 | 0.00 | 0.00 | 55 | 1013.8 |
| 20260504021550 | 8 | 0 | 0.0 | 1.6 | 0.00 | 0.00 | 0.00 | 56 | 1013.8 |
| 20260504020048 | 8 | 0 | 0.0 | 1.6 | 0.00 | 0.00 | 0.00 | 55 | 1013.7 |
| 20260504014541 | 8 | 0 | 0.0 | 0.0 | 0.00 | 0.00 | 0.00 | 56 | 1013.7 |
| 20260504013046 | 9 | 0 | 0.0 | 0.0 | 0.00 | 0.00 | 0.00 | 52 | 1013.5 |
| 20260504011534 | 10 | 0 | 0.0 | 0.0 | 0.00 | 0.00 | 0.00 | 50 | 1013.3 |
| 20260504010043 | 10 | 0 | 0.0 | 1.6 | 0.00 | 0.00 | 0.00 | 48 | 1013.2 |
| 20260504004543 | 11 | 0 | 0.0 | 3.2 | 0.00 | 0.00 | 0.00 | 46 | 1013.1 |
| 20260504003042 | 11 | 0 | 0.0 | 1.6 | 0.00 | 0.00 | 0.00 | 45 | 1012.8 |
| 20260504001540 | 12 | 0 | 0.0 | 4.8 | 0.00 | 0.00 | 0.00 | 43 | 1012.5 |
| 20260504000040 | 13 | 105 | 1.6 | 8.0 | 0.00 | 0.00 | 0.00 | 41 | 1012.5 |
| 20260503234538 | 13 | 0 | 3.2 | 11.3 | 0.00 | 0.00 | 0.00 | 39 | 1012.4 |
| 20260503233042 | 14 | 126 | 3.2 | 14.5 | 0.00 | 0.00 | 0.00 | 38 | 1012.2 |
| 20260503231551 | 14 | 139 | 8.0 | 14.5 | 0.00 | 0.00 | 0.00 | 37 | 1012.2 |
| 20260503230041 | 15 | 93 | 8.0 | 16.1 | 0.00 | 0.00 | 0.00 | 36 | 1012.2 |
| 20260503224538 | 15 | 139 | 6.4 | 24.1 | 0.00 | 0.00 | 0.00 | 36 | 1012.1 |
| 20260503223037 | 15 | 157 | 6.4 | 16.1 | 0.00 | 0.00 | 0.00 | 35 | 1012.0 |
| 20260503221550 | 15 | 136 | 8.0 | 22.5 | 0.00 | 0.00 | 0.00 | 34 | 1012.1 |
| 20260503220043 | 15 | 93 | 8.0 | 17.7 | 0.00 | 0.00 | 0.00 | 36 | 1012.2 |
| 20260503214537 | 15 | 140 | 8.0 | 19.3 | 0.00 | 0.00 | 0.00 | 36 | 1012.1 |
| 20260503213043 | 15 | 140 | 14.5 | 22.5 | 0.00 | 0.00 | 0.00 | 34 | 1012.0 |
| 20260503211553 | 15 | 153 | 3.2 | 20.9 | 0.00 | 0.00 | 0.00 | 35 | 1012.0 |
| 20260503210043 | 15 | 122 | 14.5 | 32.2 | 0.00 | 0.00 | 0.00 | 34 | 1012.1 |
| 20260503204539 | 14 | 118 | 9.7 | 22.5 | 0.00 | 0.00 | 0.00 | 35 | 1012.0 |
| 20260503203040 | 15 | 137 | 6.4 | 20.9 | 0.00 | 0.00 | 0.00 | 37 | 1012.1 |
| 20260503201538 | 14 | 126 | 6.4 | 27.4 | 0.00 | 0.00 | 0.00 | 37 | 1012.4 |
| 20260503200035 | 13 | 125 | 11.3 | 20.9 | 0.00 | 0.00 | 0.00 | 38 | 1012.5 |
| 20260503194548 | 13 | 124 | 6.4 | 22.5 | 0.00 | 0.00 | 0.00 | 37 | 1012.5 |
| 20260503193043 | 13 | 132 | 11.3 | 32.2 | 0.00 | 0.00 | 0.00 | 39 | 1012.7 |
| 20260503191550 | 13 | 175 | 17.7 | 38.6 | 0.00 | 0.00 | 0.00 | 38 | 1012.9 |
| 20260503190044 | 13 | 165 | 12.9 | 22.5 | 0.00 | 0.00 | 0.00 | 36 | 1012.8 |
| 20260503184549 | 13 | 110 | 12.9 | 24.1 | 0.00 | 0.00 | 0.00 | 37 | 1013.1 |
| 20260503183044 | 12 | 146 | 14.5 | 30.6 | 0.00 | 0.00 | 0.00 | 39 | 1013.3 |
| 20260503181540 | 13 | 160 | 12.9 | 27.4 | 0.00 | 0.00 | 0.00 | 40 | 1013.3 |
| 20260503180041 | 12 | 147 | 12.9 | 35.4 | 0.00 | 0.00 | 0.00 | 38 | 1013.3 |
| 20260503174559 | 12 | 117 | 14.5 | 30.6 | 0.00 | 0.00 | 0.00 | 38 | 1013.3 |
| 20260503173040 | 12 | 98 | 8.0 | 30.6 | 0.00 | 0.00 | 0.00 | 39 | 1013.5 |
| 20260503171540 | 12 | 122 | 12.9 | 27.4 | 0.00 | 0.00 | 0.00 | 40 | 1013.6 |